User: anonymous   Login
Location: McDonald Observatory
(30.6717°N, 104.0221°W)
Time: 08:19:40
(UTC-05:00)
Language:

Cosmos 1484 Rocket - Orbit

View from above orbital plane
View from above orbital plane
View from above satellite
View from above satellite

Ground track
Ground track

The orbit data is extracted from the following two-line orbital elements,

1 14208U 83075B   17265.22248524  .00000363  00000-0  25427-4 0  9994
2 14208  97.3414 271.8127 0040084 154.1698 206.1545 15.10475086862155
Epoch (UTC): 22 September 2017 05:20:22
Eccentricity: 0.0040084
inclination: 97.3414°
perigee height: 507 km
apogee height: 562 km
right ascension of ascending node: 271.8127°
argument of perigee: 154.1698°
revolutions per day: 15.10475086
mean anomaly at epoch: 206.1545°
orbit number at epoch: 86215

The dashed part of the orbit path shows where the satellite is in the earth's shadow,  

DLR